Location: Shepherdstown, WV
(39.4326°N, 77.8042°W)
Time: 05:44:17
(UTC-04:00)

Vanguard 3 - Pass Details

Date: 07 August 2021
Orbit: 510 x 3260 km, 33.3° (Epoch: 21 September)

Event Time Altitude Azimuth Distance (km) Brightness Sun altitude
Rises 17:14:30 0° 239° (WSW) 4,384 11.8 33.7°
Reaches altitude 10° 17:17:00 10° 235° (SW) 3,701 11.6 33.2°
Maximum altitude 17:27:02 58° 160° (SSE) 2,499 9.9 31.3°
Drops below altitude 10° 17:43:50 10° 87° (E) 5,934 11.1 28.0°
Sets 17:49:03 0° 85° (E) 7,136 11.4 27.0°
